Location: Newark
(30.0333°N, 31.2167°E)
Time: 01:58:43
(UTC+00:00)

Tiros 1 - Pass Details

Date: 30 January 2020
Orbit: 631 x 664 km, 48.4° (Epoch: 21 February)

Event Time Altitude Azimuth Distance (km) Brightness Sun altitude
Rises 09:45:36 0° 281° (WNW) 2,923 10.4 41.9°
Reaches altitude 10° 09:49:03 10° 308° (NW) 2,023 9.5 42.0°
Maximum altitude 09:51:25 14° 339° (NNW) 1,792 9.1 42.0°
Drops below altitude 10° 09:53:48 10° 10° (N) 2,035 9.4 42.1°
Sets 09:57:18 0° 36° (NE) 2,955 10.2 42.1°
